User: anonymous   Login
Location: Unspecified
(0.0000°N, 0.0000°E)
Time: 03:49:27
(UTC+00:00)
Language:

YAOGAN 7 - Orbit

View from above orbital plane
View from above orbital plane
View from above satellite
View from above satellite

Ground track
Ground track

The orbit data is extracted from the following two-line orbital elements,

1 36110U 09069A   18292.87406679  .00000077  00000-0  19504-4 0  9991
2 36110  98.2614 105.5298 0024263 354.1075   5.9845 14.75157621477070
Epoch (UTC): 19 October 2018 20:58:39
Eccentricity: 0.0024263
inclination: 98.2614°
perigee height: 627 km
apogee height: 661 km
right ascension of ascending node: 105.5298°
argument of perigee: 354.1075°
revolutions per day: 14.75157621
mean anomaly at epoch: 5.9845°
orbit number at epoch: 47707

The dashed part of the orbit path shows where the satellite is in the earth's shadow,  

DLR